owner,sensor,date,latitude,longitude,vertical_datum,sea_water_practical_salinity,qcFlag 
TABS,ioos:station:wmo:42049:1,2016-05-01T00:00:00Z,28.3507,-96.0058,2.0,18.0414,11111222 
TABS,ioos:station:wmo:42049:1,2016-05-01T00:30:00Z,28.3507,-96.0058,2.0,17.9379,11111222 
TABS,ioos:station:wmo:42049:1,2016-05-01T01:00:00Z,28.3507,-96.0058,2.0,17.8867,11111222 
TABS,ioos:station:wmo:42049:1,2016-05-01T01:30:00Z,28.3507,-96.0058,2.0,17.5261,11111222 
TABS,ioos:station:wmo:42049:1,2016-05-01T02:00:00Z,28.3507,-96.0058,2.0,17.7318,11111222 
TABS,ioos:station:wmo:42049:1,2016-05-01T02:30:00Z,28.3507,-96.0058,2.0,17.765,11111222 
TABS,ioos:station:wmo:42049:1,2016-05-01T03:00:00Z,28.3507,-96.0058,2.0,17.8994,11111222 
TABS,ioos:station:wmo:42049:1,2016-05-01T03:30:00Z,28.3507,-96.0058,2.0,18.568,11111222 
TABS,ioos:station:wmo:42049:1,2016-05-01T04:00:00Z,28.3507,-96.0058,2.0,18.7339,11111222 
TABS,ioos:station:wmo:42049:1,2016-05-01T04:30:00Z,28.3507,-96.0058,2.0,18.4626,11111222 
TABS,ioos:station:wmo:42049:1,2016-05-01T05:00:00Z,28.3507,-96.0058,2.0,18.0889,11111222 
TABS,ioos:station:wmo:42049:1,2016-05-01T05:30:00Z,28.3507,-96.0058,2.0,17.9187,11111222 
TABS,ioos:station:wmo:42049:1,2016-05-01T06:00:00Z,28.3507,-96.0058,2.0,17.7824,11111222 
TABS,ioos:station:wmo:42049:1,2016-05-04T17:00:00Z,28.3507,-96.0058,2.0,29.2884,11111222 
TABS,ioos:station:wmo:42049:1,2016-05-04T17:30:00Z,28.3507,-96.0058,2.0,29.3056,11111222 
TABS,ioos:station:wmo:42049:1,2016-05-04T18:00:00Z,28.3507,-96.0058,2.0,29.4143,11111222 
TABS,ioos:station:wmo:42049:1,2016-05-04T18:30:00Z,28.3507,-96.0058,2.0,29.4214,11111222 
TABS,ioos:station:wmo:42049:1,2016-05-04T19:00:00Z,28.3507,-96.0058,2.0,29.43,11111222 
TABS,ioos:station:wmo:42049:1,2016-05-04T19:30:00Z,28.3507,-96.0058,2.0,29.1779,11111222 
TABS,ioos:station:wmo:42049:1,2016-05-04T20:00:00Z,28.3507,-96.0058,2.0,29.1607,11111222 
TABS,ioos:station:wmo:42049:1,2016-05-04T20:30:00Z,28.3507,-96.0058,2.0,29.0592,11111222 
TABS,ioos:station:wmo:42049:1,2016-05-04T21:00:00Z,28.3507,-96.0058,2.0,28.8412,11111222 
TABS,ioos:station:wmo:42049:1,2016-05-04T21:30:00Z,28.3507,-96.0058,2.0,28.7538,11111222 
TABS,ioos:station:wmo:42049:1,2016-05-04T22:00:00Z,28.3507,-96.0058,2.0,28.8022,11111222 
TABS,ioos:station:wmo:42049:1,2016-05-04T22:30:00Z,28.3507,-96.0058,2.0,28.7731,11111222 
TABS,ioos:station:wmo:42049:1,2016-05-04T23:00:00Z,28.3507,-96.0058,2.0,28.6812,11111222 
TABS,ioos:station:wmo:42049:1,2016-05-04T23:30:00Z,28.3507,-96.0058,2.0,28.6033,11111222 
TABS,ioos:station:wmo:42049:1,2016-05-05T00:00:00Z,28.3507,-96.0058,2.0,28.471,11111222 
TABS,ioos:station:wmo:42049:1,2016-05-05T00:30:00Z,28.3507,-96.0058,2.0,28.2495,11111222 
TABS,ioos:station:wmo:42049:1,2016-05-05T01:00:00Z,28.3507,-96.0058,2.0,27.2001,11111222 
TABS,ioos:station:wmo:42049:1,2016-05-05T01:30:00Z,28.3507,-96.0058,2.0,27.3292,11111222 
TABS,ioos:station:wmo:42049:1,2016-05-05T02:00:00Z,28.3507,-96.0058,2.0,27.1531,11111222 
TABS,ioos:station:wmo:42049:1,2016-05-05T02:30:00Z,28.3507,-96.0058,2.0,27.3337,11111222 
TABS,ioos:station:wmo:42049:1,2016-05-05T03:00:00Z,28.3507,-96.0058,2.0,27.4882,11111222 
TABS,ioos:station:wmo:42049:1,2016-05-05T03:30:00Z,28.3507,-96.0058,2.0,27.2684,11111222 
TABS,ioos:station:wmo:42049:1,2016-05-05T04:00:00Z,28.3507,-96.0058,2.0,27.3611,11111222 
TABS,ioos:station:wmo:42049:1,2016-05-05T04:30:00Z,28.3507,-96.0058,2.0,27.6615,11111222 
TABS,ioos:station:wmo:42049:1,2016-05-05T05:00:00Z,28.3507,-96.0058,2.0,27.4365,11111222 
TABS,ioos:station:wmo:42049:1,2016-05-05T05:30:00Z,28.3507,-96.0058,2.0,27.8518,11111222 
TABS,ioos:station:wmo:42049:1,2016-05-05T06:00:00Z,28.3507,-96.0058,2.0,28.2038,11111222 
TABS,ioos:station:wmo:42049:1,2016-05-05T06:30:00Z,28.3507,-96.0058,2.0,27.8798,11111222 
TABS,ioos:station:wmo:42049:1,2016-05-05T07:00:00Z,28.3507,-96.0058,2.0,27.6516,11111222 
TABS,ioos:station:wmo:42049:1,2016-05-05T07:30:00Z,28.3507,-96.0058,2.0,27.5703,11111222 
TABS,ioos:station:wmo:42049:1,2016-05-05T08:00:00Z,28.3507,-96.0058,2.0,27.3275,11111222 
TABS,ioos:station:wmo:42049:1,2016-05-05T08:30:00Z,28.3507,-96.0058,2.0,26.2202,11111222 
TABS,ioos:station:wmo:42049:1,2016-05-05T09:00:00Z,28.3507,-96.0058,2.0,26.7649,11111222 
TABS,ioos:station:wmo:42049:1,2016-05-05T09:30:00Z,28.3507,-96.0058,2.0,26.097,11111222 
TABS,ioos:station:wmo:42049:1,2016-05-05T10:00:00Z,28.3507,-96.0058,2.0,25.9877,11111222 
TABS,ioos:station:wmo:42049:1,2016-05-05T10:30:00Z,28.3507,-96.0058,2.0,26.0275,11111222 
TABS,ioos:station:wmo:42049:1,2016-05-05T11:00:00Z,28.3507,-96.0058,2.0,25.6494,11111222 
TABS,ioos:station:wmo:42049:1,2016-05-05T11:30:00Z,28.3507,-96.0058,2.0,25.2434,11111222 
TABS,ioos:station:wmo:42049:1,2016-05-05T12:00:00Z,28.3507,-96.0058,2.0,25.1372,11111222 
TABS,ioos:station:wmo:42049:1,2016-05-05T12:30:00Z,28.3507,-96.0058,2.0,24.9064,11111222 
TABS,ioos:station:wmo:42049:1,2016-05-05T13:00:00Z,28.3507,-96.0058,2.0,24.8244,11111222 
TABS,ioos:station:wmo:42049:1,2016-05-05T13:30:00Z,28.3507,-96.0058,2.0,24.7007,11111222 
TABS,ioos:station:wmo:42049:1,2016-05-05T14:00:00Z,28.3507,-96.0058,2.0,24.5003,11111222 
TABS,ioos:station:wmo:42049:1,2016-05-05T14:30:00Z,28.3507,-96.0058,2.0,24.2827,11111222 
TABS,ioos:station:wmo:42049:1,2016-05-05T15:00:00Z,28.3507,-96.0058,2.0,24.2301,11111222 
TABS,ioos:station:wmo:42049:1,2016-05-05T16:00:00Z,28.3507,-96.0058,2.0,23.8248,11111222 
TABS,ioos:station:wmo:42049:1,2016-05-05T16:30:00Z,28.3507,-96.0058,2.0,23.6864,11111222 
TABS,ioos:station:wmo:42049:1,2016-05-05T17:00:00Z,28.3507,-96.0058,2.0,23.5968,11111222 
TABS,ioos:station:wmo:42049:1,2016-05-05T17:30:00Z,28.3507,-96.0058,2.0,23.3748,11111222 
TABS,ioos:station:wmo:42049:1,2016-05-05T18:00:00Z,28.3507,-96.0058,2.0,23.2546,11111222 
TABS,ioos:station:wmo:42049:1,2016-05-05T18:30:00Z,28.3507,-96.0058,2.0,23.0893,11111222 
TABS,ioos:station:wmo:42049:1,2016-05-05T19:00:00Z,28.3507,-96.0058,2.0,22.9821,11111222 
TABS,ioos:station:wmo:42049:1,2016-05-05T19:30:00Z,28.3507,-96.0058,2.0,22.8905,11111222 
TABS,ioos:station:wmo:42049:1,2016-05-05T20:00:00Z,28.3507,-96.0058,2.0,22.7901,11111222 
TABS,ioos:station:wmo:42049:1,2016-05-05T20:30:00Z,28.3507,-96.0058,2.0,22.6729,11111222 
TABS,ioos:station:wmo:42049:1,2016-05-05T21:00:00Z,28.3507,-96.0058,2.0,22.4841,11111222 
TABS,ioos:station:wmo:42049:1,2016-05-05T21:30:00Z,28.3507,-96.0058,2.0,22.3334,11111222 
TABS,ioos:station:wmo:42049:1,2016-05-05T22:00:00Z,28.3507,-96.0058,2.0,22.2501,11111222 
TABS,ioos:station:wmo:42049:1,2016-05-05T22:30:00Z,28.3507,-96.0058,2.0,22.1585,11111222 
TABS,ioos:station:wmo:42049:1,2016-05-05T23:00:00Z,28.3507,-96.0058,2.0,22.2391,11111222 
TABS,ioos:station:wmo:42049:1,2016-05-05T23:30:00Z,28.3507,-96.0058,2.0,22.0648,11111222 
TABS,ioos:station:wmo:42049:1,2016-05-06T00:00:00Z,28.3507,-96.0058,2.0,22.0519,11111222 
TABS,ioos:station:wmo:42049:1,2016-05-06T00:30:00Z,28.3507,-96.0058,2.0,21.9829,11111222 
TABS,ioos:station:wmo:42049:1,2016-05-06T01:00:00Z,28.3507,-96.0058,2.0,21.9701,11111222 
TABS,ioos:station:wmo:42049:1,2016-05-06T01:30:00Z,28.3507,-96.0058,2.0,21.9843,11111222 
TABS,ioos:station:wmo:42049:1,2016-05-06T02:00:00Z,28.3507,-96.0058,2.0,21.9304,11111222 
TABS,ioos:station:wmo:42049:1,2016-05-06T02:30:00Z,28.3507,-96.0058,2.0,21.9778,11111222 
TABS,ioos:station:wmo:42049:1,2016-05-06T03:00:00Z,28.3507,-96.0058,2.0,21.8928,11111222 
TABS,ioos:station:wmo:42049:1,2016-05-06T03:30:00Z,28.3507,-96.0058,2.0,21.9221,11111222 
TABS,ioos:station:wmo:42049:1,2016-05-06T04:00:00Z,28.3507,-96.0058,2.0,21.9031,11111222 
TABS,ioos:station:wmo:42049:1,2016-05-06T04:30:00Z,28.3507,-96.0058,2.0,21.924,11111222 
TABS,ioos:station:wmo:42049:1,2016-05-06T05:00:00Z,28.3507,-96.0058,2.0,21.9087,11111222 
TABS,ioos:station:wmo:42049:1,2016-05-06T05:30:00Z,28.3507,-96.0058,2.0,22.028,11111222 
TABS,ioos:station:wmo:42049:1,2016-05-06T06:00:00Z,28.3507,-96.0058,2.0,22.0344,11111222 
TABS,ioos:station:wmo:42049:1,2016-05-06T06:30:00Z,28.3507,-96.0058,2.0,22.2428,11111222 
TABS,ioos:station:wmo:42049:1,2016-05-06T07:00:00Z,28.3507,-96.0058,2.0,22.3576,11111222 
TABS,ioos:station:wmo:42049:1,2016-05-06T07:30:00Z,28.3507,-96.0058,2.0,22.6101,11111222 
TABS,ioos:station:wmo:42049:1,2016-05-06T08:00:00Z,28.3507,-96.0058,2.0,22.5448,11111222 
TABS,ioos:station:wmo:42049:1,2016-05-06T08:30:00Z,28.3507,-96.0058,2.0,22.8055,11111222 
TABS,ioos:station:wmo:42049:1,2016-05-06T09:00:00Z,28.3507,-96.0058,2.0,22.8456,11111222 
TABS,ioos:station:wmo:42049:1,2016-05-06T09:30:00Z,28.3507,-96.0058,2.0,23.026,11111222 
TABS,ioos:station:wmo:42049:1,2016-05-06T10:00:00Z,28.3507,-96.0058,2.0,23.3243,11111222 
TABS,ioos:station:wmo:42049:1,2016-05-06T10:30:00Z,28.3507,-96.0058,2.0,23.5538,11111222 
TABS,ioos:station:wmo:42049:1,2016-05-06T11:00:00Z,28.3507,-96.0058,2.0,23.678,11111222 
TABS,ioos:station:wmo:42049:1,2016-05-06T11:30:00Z,28.3507,-96.0058,2.0,23.7459,11111222 
TABS,ioos:station:wmo:42049:1,2016-05-06T12:00:00Z,28.3507,-96.0058,2.0,24.0046,11111222 
TABS,ioos:station:wmo:42049:1,2016-05-06T12:30:00Z,28.3507,-96.0058,2.0,24.3593,11111222 
TABS,ioos:station:wmo:42049:1,2016-05-06T13:00:00Z,28.3507,-96.0058,2.0,24.8615,11111222 
TABS,ioos:station:wmo:42049:1,2016-05-06T13:30:00Z,28.3507,-96.0058,2.0,25.1529,11111222 
TABS,ioos:station:wmo:42049:1,2016-05-06T14:00:00Z,28.3507,-96.0058,2.0,25.6973,11111222 
TABS,ioos:station:wmo:42049:1,2016-05-06T15:00:00Z,28.3507,-96.0058,2.0,25.8098,11111222 
TABS,ioos:station:wmo:42049:1,2016-05-06T15:30:00Z,28.3507,-96.0058,2.0,26.0951,11111222 
TABS,ioos:station:wmo:42049:1,2016-05-06T16:00:00Z,28.3507,-96.0058,2.0,26.0676,11111222 
TABS,ioos:station:wmo:42049:1,2016-05-06T17:00:00Z,28.3507,-96.0058,2.0,26.5304,11111222 
TABS,ioos:station:wmo:42049:1,2016-05-06T18:00:00Z,28.3507,-96.0058,2.0,26.8818,11111222 
TABS,ioos:station:wmo:42049:1,2016-05-06T18:30:00Z,28.3507,-96.0058,2.0,27.3851,11111222 
TABS,ioos:station:wmo:42049:1,2016-05-06T19:00:00Z,28.3507,-96.0058,2.0,27.5031,11111222 
TABS,ioos:station:wmo:42049:1,2016-05-06T19:30:00Z,28.3507,-96.0058,2.0,27.6385,11111222 
TABS,ioos:station:wmo:42049:1,2016-05-06T20:00:00Z,28.3507,-96.0058,2.0,27.8296,11111222 
TABS,ioos:station:wmo:42049:1,2016-05-06T20:30:00Z,28.3507,-96.0058,2.0,28.2493,11111222 
TABS,ioos:station:wmo:42049:1,2016-05-06T21:00:00Z,28.3507,-96.0058,2.0,27.8453,11111222 
TABS,ioos:station:wmo:42049:1,2016-05-06T21:30:00Z,28.3507,-96.0058,2.0,27.43,11111222 
TABS,ioos:station:wmo:42049:1,2016-05-06T22:00:00Z,28.3507,-96.0058,2.0,27.374,11111222 
TABS,ioos:station:wmo:42049:1,2016-05-06T22:30:00Z,28.3507,-96.0058,2.0,27.6424,11111222 
TABS,ioos:station:wmo:42049:1,2016-05-06T23:00:00Z,28.3507,-96.0058,2.0,27.4385,11111222 
TABS,ioos:station:wmo:42049:1,2016-05-06T23:30:00Z,28.3507,-96.0058,2.0,27.5811,11111222 
TABS,ioos:station:wmo:42049:1,2016-05-07T00:00:00Z,28.3507,-96.0058,2.0,27.447,11111222 
TABS,ioos:station:wmo:42049:1,2016-05-07T00:30:00Z,28.3507,-96.0058,2.0,27.4817,11111222 
TABS,ioos:station:wmo:42049:1,2016-05-07T01:00:00Z,28.3507,-96.0058,2.0,27.8018,11111222 
TABS,ioos:station:wmo:42049:1,2016-05-07T01:30:00Z,28.3507,-96.0058,2.0,27.4915,11111222 
TABS,ioos:station:wmo:42049:1,2016-05-07T02:00:00Z,28.3507,-96.0058,2.0,27.444,11111222 
TABS,ioos:station:wmo:42049:1,2016-05-07T02:30:00Z,28.3507,-96.0058,2.0,27.4956,11111222 
TABS,ioos:station:wmo:42049:1,2016-05-07T03:00:00Z,28.3507,-96.0058,2.0,27.5415,11111222 
TABS,ioos:station:wmo:42049:1,2016-05-07T03:30:00Z,28.3507,-96.0058,2.0,27.6082,11111222 
TABS,ioos:station:wmo:42049:1,2016-05-07T04:00:00Z,28.3507,-96.0058,2.0,27.6237,11111222 
TABS,ioos:station:wmo:42049:1,2016-05-07T04:30:00Z,28.3507,-96.0058,2.0,27.6363,11111222 
TABS,ioos:station:wmo:42049:1,2016-05-07T05:00:00Z,28.3507,-96.0058,2.0,27.5502,11111222 
TABS,ioos:station:wmo:42049:1,2016-05-07T05:30:00Z,28.3507,-96.0058,2.0,27.4907,11111222 
TABS,ioos:station:wmo:42049:1,2016-05-07T06:00:00Z,28.3507,-96.0058,2.0,27.689,11111222 
TABS,ioos:station:wmo:42049:1,2016-05-07T06:30:00Z,28.3507,-96.0058,2.0,27.6781,11111222 
TABS,ioos:station:wmo:42049:1,2016-05-07T07:00:00Z,28.3507,-96.0058,2.0,27.7329,11111222 
TABS,ioos:station:wmo:42049:1,2016-05-07T07:30:00Z,28.3507,-96.0058,2.0,27.7735,11111222 
TABS,ioos:station:wmo:42049:1,2016-05-07T08:00:00Z,28.3507,-96.0058,2.0,27.7795,11111222 
TABS,ioos:station:wmo:42049:1,2016-05-07T08:30:00Z,28.3507,-96.0058,2.0,27.7495,11111222 
TABS,ioos:station:wmo:42049:1,2016-05-07T09:00:00Z,28.3507,-96.0058,2.0,27.7608,11111222 
TABS,ioos:station:wmo:42049:1,2016-05-07T09:30:00Z,28.3507,-96.0058,2.0,27.8421,11111222 
TABS,ioos:station:wmo:42049:1,2016-05-07T10:00:00Z,28.3507,-96.0058,2.0,27.8736,11111222 
TABS,ioos:station:wmo:42049:1,2016-05-07T10:30:00Z,28.3507,-96.0058,2.0,27.8986,11111222 
TABS,ioos:station:wmo:42049:1,2016-05-07T11:00:00Z,28.3507,-96.0058,2.0,27.9762,11111222 
TABS,ioos:station:wmo:42049:1,2016-05-07T11:30:00Z,28.3507,-96.0058,2.0,28.0324,11111222 
TABS,ioos:station:wmo:42049:1,2016-05-07T12:00:00Z,28.3507,-96.0058,2.0,28.0826,11111222 
TABS,ioos:station:wmo:42049:1,2016-05-07T12:30:00Z,28.3507,-96.0058,2.0,28.146,11111222 
TABS,ioos:station:wmo:42049:1,2016-05-07T13:00:00Z,28.3507,-96.0058,2.0,28.1595,11111222 
TABS,ioos:station:wmo:42049:1,2016-05-07T13:30:00Z,28.3507,-96.0058,2.0,28.2041,11111222 
TABS,ioos:station:wmo:42049:1,2016-05-07T14:00:00Z,28.3507,-96.0058,2.0,28.231,11111222 
TABS,ioos:station:wmo:42049:1,2016-05-07T14:30:00Z,28.3507,-96.0058,2.0,28.2676,11111222 
TABS,ioos:station:wmo:42049:1,2016-05-07T15:00:00Z,28.3507,-96.0058,2.0,28.2903,11111222 
TABS,ioos:station:wmo:42049:1,2016-05-07T15:30:00Z,28.3507,-96.0058,2.0,28.3665,11111222 
TABS,ioos:station:wmo:42049:1,2016-05-07T16:00:00Z,28.3507,-96.0058,2.0,28.4152,11111222 
TABS,ioos:station:wmo:42049:1,2016-05-07T16:30:00Z,28.3507,-96.0058,2.0,28.4814,11111222 
TABS,ioos:station:wmo:42049:1,2016-05-07T17:00:00Z,28.3507,-96.0058,2.0,28.5095,11111222 
TABS,ioos:station:wmo:42049:1,2016-05-07T17:30:00Z,28.3507,-96.0058,2.0,28.5587,11111222 
TABS,ioos:station:wmo:42049:1,2016-05-07T18:00:00Z,28.3507,-96.0058,2.0,28.6305,11111222 
TABS,ioos:station:wmo:42049:1,2016-05-07T18:30:00Z,28.3507,-96.0058,2.0,28.685,11111222 
TABS,ioos:station:wmo:42049:1,2016-05-07T19:00:00Z,28.3507,-96.0058,2.0,28.7288,11111222 
TABS,ioos:station:wmo:42049:1,2016-05-07T20:00:00Z,28.3507,-96.0058,2.0,28.8605,11111222 
TABS,ioos:station:wmo:42049:1,2016-05-07T20:30:00Z,28.3507,-96.0058,2.0,28.8982,11111222 
TABS,ioos:station:wmo:42049:1,2016-05-07T21:00:00Z,28.3507,-96.0058,2.0,28.9252,11111222 
TABS,ioos:station:wmo:42049:1,2016-05-07T21:30:00Z,28.3507,-96.0058,2.0,28.9856,11111222 
TABS,ioos:station:wmo:42049:1,2016-05-07T22:00:00Z,28.3507,-96.0058,2.0,29.0106,11111222 
TABS,ioos:station:wmo:42049:1,2016-05-07T22:30:00Z,28.3507,-96.0058,2.0,29.0412,11111222 
TABS,ioos:station:wmo:42049:1,2016-05-07T23:00:00Z,28.3507,-96.0058,2.0,29.0692,11111222 
TABS,ioos:station:wmo:42049:1,2016-05-07T23:30:00Z,28.3507,-96.0058,2.0,29.1005,11111222 
TABS,ioos:station:wmo:42049:1,2016-05-08T00:00:00Z,28.3507,-96.0058,2.0,29.1416,11111222 
TABS,ioos:station:wmo:42049:1,2016-05-08T00:30:00Z,28.3507,-96.0058,2.0,29.1678,11111222 
TABS,ioos:station:wmo:42049:1,2016-05-08T01:00:00Z,28.3507,-96.0058,2.0,29.1892,11111222 
TABS,ioos:station:wmo:42049:1,2016-05-08T01:30:00Z,28.3507,-96.0058,2.0,29.2234,11111222 
TABS,ioos:station:wmo:42049:1,2016-05-08T02:00:00Z,28.3507,-96.0058,2.0,29.2505,11111222 
TABS,ioos:station:wmo:42049:1,2016-05-08T02:30:00Z,28.3507,-96.0058,2.0,29.2648,11111222 
TABS,ioos:station:wmo:42049:1,2016-05-08T03:00:00Z,28.3507,-96.0058,2.0,29.2729,11111222 
TABS,ioos:station:wmo:42049:1,2016-05-08T03:30:00Z,28.3507,-96.0058,2.0,29.3024,11111222 
TABS,ioos:station:wmo:42049:1,2016-05-08T04:00:00Z,28.3507,-96.0058,2.0,29.3419,11111222 
TABS,ioos:station:wmo:42049:1,2016-05-08T04:30:00Z,28.3507,-96.0058,2.0,29.3831,11111222 
TABS,ioos:station:wmo:42049:1,2016-05-08T05:00:00Z,28.3507,-96.0058,2.0,29.3955,11111222 
TABS,ioos:station:wmo:42049:1,2016-05-08T05:30:00Z,28.3507,-96.0058,2.0,29.3589,11111222 
TABS,ioos:station:wmo:42049:1,2016-05-08T06:00:00Z,28.3507,-96.0058,2.0,28.9942,11111222 
TABS,ioos:station:wmo:42049:1,2016-05-08T06:30:00Z,28.3507,-96.0058,2.0,29.0183,11111222 
TABS,ioos:station:wmo:42049:1,2016-05-08T07:00:00Z,28.3507,-96.0058,2.0,29.0338,11111222 
TABS,ioos:station:wmo:42049:1,2016-05-08T07:30:00Z,28.3507,-96.0058,2.0,29.0472,11111222 
TABS,ioos:station:wmo:42049:1,2016-05-08T08:00:00Z,28.3507,-96.0058,2.0,29.0882,11111222 
TABS,ioos:station:wmo:42049:1,2016-05-08T08:30:00Z,28.3507,-96.0058,2.0,29.0881,11111222 
TABS,ioos:station:wmo:42049:1,2016-05-08T09:00:00Z,28.3507,-96.0058,2.0,29.1929,11111222 
TABS,ioos:station:wmo:42049:1,2016-05-08T09:30:00Z,28.3507,-96.0058,2.0,28.9158,11111222 
TABS,ioos:station:wmo:42049:1,2016-05-08T10:00:00Z,28.3507,-96.0058,2.0,28.2491,11111222 
TABS,ioos:station:wmo:42049:1,2016-05-08T10:30:00Z,28.3507,-96.0058,2.0,27.2154,11111222 
TABS,ioos:station:wmo:42049:1,2016-05-08T11:00:00Z,28.3507,-96.0058,2.0,26.3378,11111222 
TABS,ioos:station:wmo:42049:1,2016-05-08T11:30:00Z,28.3507,-96.0058,2.0,25.3252,11111222 
TABS,ioos:station:wmo:42049:1,2016-05-08T12:00:00Z,28.3507,-96.0058,2.0,24.7314,11111222 
TABS,ioos:station:wmo:42049:1,2016-05-08T12:30:00Z,28.3507,-96.0058,2.0,24.4446,11111222 
TABS,ioos:station:wmo:42049:1,2016-05-08T13:00:00Z,28.3507,-96.0058,2.0,24.3496,11111222 
TABS,ioos:station:wmo:42049:1,2016-05-08T13:30:00Z,28.3507,-96.0058,2.0,24.1159,11111222 
TABS,ioos:station:wmo:42049:1,2016-05-08T14:00:00Z,28.3507,-96.0058,2.0,24.0748,11111222 
TABS,ioos:station:wmo:42049:1,2016-05-08T14:30:00Z,28.3507,-96.0058,2.0,24.0598,11111222 
TABS,ioos:station:wmo:42049:1,2016-05-08T15:00:00Z,28.3507,-96.0058,2.0,24.0665,11111222 
TABS,ioos:station:wmo:42049:1,2016-05-08T15:30:00Z,28.3507,-96.0058,2.0,24.0632,11111222 
TABS,ioos:station:wmo:42049:1,2016-05-08T16:00:00Z,28.3507,-96.0058,2.0,24.0819,11111222 
TABS,ioos:station:wmo:42049:1,2016-05-08T16:30:00Z,28.3507,-96.0058,2.0,24.0871,11111222 
TABS,ioos:station:wmo:42049:1,2016-05-08T17:00:00Z,28.3507,-96.0058,2.0,24.11,11111222 
TABS,ioos:station:wmo:42049:1,2016-05-08T17:30:00Z,28.3507,-96.0058,2.0,24.1349,11111222 
TABS,ioos:station:wmo:42049:1,2016-05-08T18:00:00Z,28.3507,-96.0058,2.0,24.2261,11111222 
TABS,ioos:station:wmo:42049:1,2016-05-08T18:30:00Z,28.3507,-96.0058,2.0,24.5323,11111222 
TABS,ioos:station:wmo:42049:1,2016-05-08T19:00:00Z,28.3507,-96.0058,2.0,25.0369,11111222 
TABS,ioos:station:wmo:42049:1,2016-05-08T19:30:00Z,28.3507,-96.0058,2.0,26.0483,11111222 
TABS,ioos:station:wmo:42049:1,2016-05-08T20:00:00Z,28.3507,-96.0058,2.0,27.3812,11111222 
TABS,ioos:station:wmo:42049:1,2016-05-08T20:30:00Z,28.3507,-96.0058,2.0,28.3399,11111222 
TABS,ioos:station:wmo:42049:1,2016-05-08T21:00:00Z,28.3507,-96.0058,2.0,28.6605,11111222 
TABS,ioos:station:wmo:42049:1,2016-05-08T21:30:00Z,28.3507,-96.0058,2.0,28.9798,11111222 
TABS,ioos:station:wmo:42049:1,2016-05-08T22:00:00Z,28.3507,-96.0058,2.0,29.0846,11111222 
TABS,ioos:station:wmo:42049:1,2016-05-08T22:30:00Z,28.3507,-96.0058,2.0,28.8912,11111222 
TABS,ioos:station:wmo:42049:1,2016-05-08T23:00:00Z,28.3507,-96.0058,2.0,28.7816,11111222 
TABS,ioos:station:wmo:42049:1,2016-05-08T23:30:00Z,28.3507,-96.0058,2.0,28.5454,11111222 
TABS,ioos:station:wmo:42049:1,2016-05-09T00:00:00Z,28.3507,-96.0058,2.0,28.2428,11111222 
TABS,ioos:station:wmo:42049:1,2016-05-09T00:30:00Z,28.3507,-96.0058,2.0,28.0756,11111222 
TABS,ioos:station:wmo:42049:1,2016-05-09T01:00:00Z,28.3507,-96.0058,2.0,27.6305,11111222 
TABS,ioos:station:wmo:42049:1,2016-05-09T01:30:00Z,28.3507,-96.0058,2.0,27.3963,11111222 
TABS,ioos:station:wmo:42049:1,2016-05-09T02:00:00Z,28.3507,-96.0058,2.0,26.9531,11111222 
TABS,ioos:station:wmo:42049:1,2016-05-09T02:30:00Z,28.3507,-96.0058,2.0,26.9579,11111222 
TABS,ioos:station:wmo:42049:1,2016-05-09T03:00:00Z,28.3507,-96.0058,2.0,26.2467,11111222 
TABS,ioos:station:wmo:42049:1,2016-05-09T03:30:00Z,28.3507,-96.0058,2.0,25.761,11111222 
TABS,ioos:station:wmo:42049:1,2016-05-09T04:00:00Z,28.3507,-96.0058,2.0,25.3672,11111222 
TABS,ioos:station:wmo:42049:1,2016-05-09T04:30:00Z,28.3507,-96.0058,2.0,25.1085,11111222 
TABS,ioos:station:wmo:42049:1,2016-05-09T05:00:00Z,28.3507,-96.0058,2.0,25.0533,11111222 
TABS,ioos:station:wmo:42049:1,2016-05-09T05:30:00Z,28.3507,-96.0058,2.0,24.8376,11111222 
TABS,ioos:station:wmo:42049:1,2016-05-09T06:00:00Z,28.3507,-96.0058,2.0,24.6937,11111222 
TABS,ioos:station:wmo:42049:1,2016-05-09T06:30:00Z,28.3507,-96.0058,2.0,24.1412,11111222 
TABS,ioos:station:wmo:42049:1,2016-05-09T07:00:00Z,28.3507,-96.0058,2.0,23.8803,11111222 
TABS,ioos:station:wmo:42049:1,2016-05-09T07:30:00Z,28.3507,-96.0058,2.0,23.7008,11111222 
TABS,ioos:station:wmo:42049:1,2016-05-09T08:00:00Z,28.3507,-96.0058,2.0,23.6393,11111222 
TABS,ioos:station:wmo:42049:1,2016-05-09T08:30:00Z,28.3507,-96.0058,2.0,23.6272,11111222 
TABS,ioos:station:wmo:42049:1,2016-05-09T09:00:00Z,28.3507,-96.0058,2.0,23.6163,11111222 
TABS,ioos:station:wmo:42049:1,2016-05-09T09:30:00Z,28.3507,-96.0058,2.0,23.6347,11111222 
TABS,ioos:station:wmo:42049:1,2016-05-09T10:00:00Z,28.3507,-96.0058,2.0,23.6986,11111222 
TABS,ioos:station:wmo:42049:1,2016-05-09T10:30:00Z,28.3507,-96.0058,2.0,23.6827,11111222 
TABS,ioos:station:wmo:42049:1,2016-05-09T11:00:00Z,28.3507,-96.0058,2.0,23.6678,11111222 
TABS,ioos:station:wmo:42049:1,2016-05-09T11:30:00Z,28.3507,-96.0058,2.0,23.6447,11111222 
TABS,ioos:station:wmo:42049:1,2016-05-09T12:00:00Z,28.3507,-96.0058,2.0,23.6161,11111222 
TABS,ioos:station:wmo:42049:1,2016-05-09T12:30:00Z,28.3507,-96.0058,2.0,23.6008,11111222 
TABS,ioos:station:wmo:42049:1,2016-05-09T13:00:00Z,28.3507,-96.0058,2.0,23.5637,11111222 
TABS,ioos:station:wmo:42049:1,2016-05-09T13:30:00Z,28.3507,-96.0058,2.0,23.5153,11111222 
TABS,ioos:station:wmo:42049:1,2016-05-09T14:00:00Z,28.3507,-96.0058,2.0,23.574,11111222 
TABS,ioos:station:wmo:42049:1,2016-05-09T14:30:00Z,28.3507,-96.0058,2.0,23.8664,11111222 
TABS,ioos:station:wmo:42049:1,2016-05-09T15:00:00Z,28.3507,-96.0058,2.0,24.66,11111222 
TABS,ioos:station:wmo:42049:1,2016-05-09T15:30:00Z,28.3507,-96.0058,2.0,25.865,11111222 
TABS,ioos:station:wmo:42049:1,2016-05-09T16:00:00Z,28.3507,-96.0058,2.0,26.7139,11111222 
TABS,ioos:station:wmo:42049:1,2016-05-09T16:30:00Z,28.3507,-96.0058,2.0,27.5958,11111222 
TABS,ioos:station:wmo:42049:1,2016-05-09T17:00:00Z,28.3507,-96.0058,2.0,28.1013,11111222 
TABS,ioos:station:wmo:42049:1,2016-05-09T17:30:00Z,28.3507,-96.0058,2.0,28.4381,11111222 
TABS,ioos:station:wmo:42049:1,2016-05-09T18:00:00Z,28.3507,-96.0058,2.0,28.6918,11111222 
TABS,ioos:station:wmo:42049:1,2016-05-09T18:30:00Z,28.3507,-96.0058,2.0,28.9383,11111222 
TABS,ioos:station:wmo:42049:1,2016-05-09T19:00:00Z,28.3507,-96.0058,2.0,29.0965,11111222 
TABS,ioos:station:wmo:42049:1,2016-05-09T19:30:00Z,28.3507,-96.0058,2.0,29.3115,11111222 
TABS,ioos:station:wmo:42049:1,2016-05-09T20:00:00Z,28.3507,-96.0058,2.0,29.4729,11111222 
TABS,ioos:station:wmo:42049:1,2016-05-09T20:30:00Z,28.3507,-96.0058,2.0,29.5325,11111222 
TABS,ioos:station:wmo:42049:1,2016-05-09T21:00:00Z,28.3507,-96.0058,2.0,29.6424,11111222 
TABS,ioos:station:wmo:42049:1,2016-05-09T21:30:00Z,28.3507,-96.0058,2.0,29.6934,11111222 
TABS,ioos:station:wmo:42049:1,2016-05-09T22:00:00Z,28.3507,-96.0058,2.0,29.7402,11111222 
TABS,ioos:station:wmo:42049:1,2016-05-09T22:30:00Z,28.3507,-96.0058,2.0,29.7367,11111222 
TABS,ioos:station:wmo:42049:1,2016-05-09T23:00:00Z,28.3507,-96.0058,2.0,29.6917,11111222 
TABS,ioos:station:wmo:42049:1,2016-05-09T23:30:00Z,28.3507,-96.0058,2.0,29.6386,11111222 
TABS,ioos:station:wmo:42049:1,2016-05-10T00:00:00Z,28.3507,-96.0058,2.0,29.615,11111222 
TABS,ioos:station:wmo:42049:1,2016-05-10T00:30:00Z,28.3507,-96.0058,2.0,29.6017,11111222 
TABS,ioos:station:wmo:42049:1,2016-05-10T01:00:00Z,28.3507,-96.0058,2.0,29.5873,11111222 